Weather History for Jefferson City, MO

Change the Weather History Date:

Wednesday, February 27, 2013

  Actual Average Record
Temperature  
Mean Temperature 32 °F -  
Max Temperature 34 °F 50 °F 78 °F (1976)
Min Temperature 30 °F 26 °F -9 °F (1934)
Degree Days  
Heating Degree Days 33    
Moisture  
Dew Point 27 °F    
Average Humidity 80    
Maximum Humidity 89    
Minimum Humidity 73    
Precipitation  
Precipitation 0.13 in - - ()
Sea Level Pressure  
Sea Level Pressure 29.86 in    
Wind  
Wind Speed 13 mph (WNW)    
Max Wind Speed 22 mph    
Max Gust Speed 31 mph    
Visibility 3 miles    
Events Snow    
Averages and records for this station are not official NWS values.
T = Trace of Precipitation, MM = Missing Value Source: NWS Daily Summary

Daily Weather History Graph

Daily Weather History Graph

Search for Another Location

Airport:

Trip Planner

Search our weather history database for the weather conditions in past years. The results will help you decide how hot, cold, wet, or windy it might be!

Date:

Astronomy

Feb. 27, 2013 Rise Set
Actual Time 6:43 AM CST 5:59 PM CST
Civil Twilight 6:16 AM CST 6:26 PM CST
Nautical Twilight 5:45 AM CST 6:57 PM CST
Astronomical Twilight 5:15 AM CST 7:28 PM CST
Moon 8:19 PM CST (2/27) 7:20 AM CST (2/27)
Length of Visible Light 12h 09m
Length of Day
11h 16m
Waning Gibbous, 96% of the Moon is Illuminated
Feb 27
Waning Gibbous
Mar 4
Last Quarter
Mar 11
New
Mar 19
First Quarter
Mar 27
Full

Hourly Weather History & Observations

Time (CST) Temp. Windchill Dew Point Humidity Pressure Visibility Wind Dir Wind Speed Gust Speed Precip Events Conditions
12:06 AM 33.8 °F 25.3 °F 28.4 °F 81% 29.75 in 8.0 mi WNW 11.5 mph - N/A   Overcast
12:53 AM 34.0 °F 26.0 °F 28.9 °F 82% 29.75 in 7.0 mi West 10.4 mph - 0.01 in   Overcast
1:53 AM 34.0 °F 25.0 °F 28.9 °F 82% 29.75 in 3.0 mi West 12.7 mph - 0.01 in Snow Light Snow
2:53 AM 34.0 °F 25.0 °F 28.9 °F 82% 29.75 in 3.0 mi West 12.7 mph - 0.00 in Snow Light Snow
3:18 AM 33.8 °F 25.8 °F 28.4 °F 81% 29.76 in 2.5 mi WNW 10.4 mph - 0.00 in Snow Light Snow
3:53 AM 33.1 °F 24.9 °F 30.0 °F 89% 29.75 in 2.5 mi WNW 10.4 mph - 0.00 in Snow Light Snow
4:07 AM 33.8 °F 26.4 °F 30.2 °F 87% 29.77 in 3.0 mi WNW 9.2 mph - 0.00 in Snow Light Snow
4:53 AM 33.1 °F 24.9 °F 28.9 °F 85% 29.77 in 3.0 mi West 10.4 mph - 0.00 in Snow Light Snow
5:04 AM 33.8 °F 25.3 °F 28.4 °F 81% 29.79 in 2.0 mi West 11.5 mph - 0.00 in Snow Light Snow
5:12 AM 33.8 °F 25.3 °F 28.4 °F 81% 29.79 in 1.5 mi West 11.5 mph - 0.00 in Snow Light Snow
5:40 AM 33.8 °F 25.3 °F 30.2 °F 87% 29.80 in 1.0 mi West 11.5 mph - 0.00 in Snow Light Snow
5:53 AM 33.1 °F 24.4 °F 28.9 °F 85% 29.79 in 1.2 mi West 11.5 mph - 0.00 in Snow Light Snow
6:10 AM 33.8 °F 25.3 °F 28.4 °F 81% 29.81 in 1.5 mi West 11.5 mph - 0.00 in Snow Light Snow
6:26 AM 33.8 °F 25.8 °F 28.4 °F 81% 29.81 in 1.5 mi West 10.4 mph - 0.00 in Snow Light Snow
6:35 AM 33.8 °F 24.8 °F 28.4 °F 81% 29.81 in 1.8 mi West 12.7 mph - 0.00 in Snow Light Snow
6:53 AM 33.1 °F 23.4 °F 28.9 °F 85% 29.80 in 1.5 mi West 13.8 mph - 0.00 in Snow Light Snow
7:53 AM 33.1 °F 23.9 °F 28.0 °F 82% 29.81 in 1.5 mi West 12.7 mph - 0.00 in Snow Light Snow
8:24 AM 33.8 °F 23.5 °F 26.6 °F 75% 29.83 in 2.0 mi West 16.1 mph - 0.00 in Snow Light Snow
8:50 AM 33.8 °F 23.9 °F 26.6 °F 75% 29.84 in 2.0 mi West 15.0 mph - 0.00 in Snow Light Snow
9:24 AM 33.8 °F 23.9 °F 26.6 °F 75% 29.84 in 3.0 mi WNW 15.0 mph - 0.02 in Snow Light Snow
9:53 AM 33.1 °F 21.9 °F 26.1 °F 75% 29.83 in 4.0 mi WNW 18.4 mph - 0.03 in   Haze
10:53 AM 33.1 °F 23.0 °F 27.0 °F 78% 29.84 in 2.5 mi WNW 15.0 mph - 0.02 in Snow Light Snow
11:41 AM 33.8 °F 23.9 °F 26.6 °F 75% 29.86 in 3.0 mi WNW 15.0 mph 23.0 mph 0.03 in Snow Light Snow
11:53 AM 33.1 °F 21.9 °F 26.1 °F 75% 29.84 in 3.0 mi WNW 18.4 mph 24.2 mph 0.03 in Snow Light Snow
12:37 PM 33.8 °F 22.8 °F 26.6 °F 75% 29.86 in 2.0 mi WNW 18.4 mph 27.6 mph 0.02 in Snow Light Snow
12:44 PM 33.8 °F 23.9 °F 26.6 °F 75% 29.86 in 1.8 mi WNW 15.0 mph - 0.02 in Snow Light Snow
12:53 PM 33.1 °F 22.2 °F 26.1 °F 75% 29.84 in 1.8 mi WNW 17.3 mph 26.5 mph 0.02 in Snow Light Snow
1:09 PM 33.8 °F 22.2 °F 26.6 °F 75% 29.86 in 2.0 mi WNW 20.7 mph 26.5 mph 0.01 in Snow Light Snow
1:53 PM 33.1 °F 23.0 °F 27.0 °F 78% 29.84 in 2.0 mi WNW 15.0 mph - 0.01 in Snow Light Snow
2:24 PM 33.8 °F 23.5 °F 26.6 °F 75% 29.86 in 3.0 mi WNW 16.1 mph - 0.00 in Snow Light Snow
2:53 PM 34.0 °F 22.1 °F 26.1 °F 73% 29.86 in 3.0 mi West 21.9 mph 31.1 mph 0.00 in Snow Light Snow
3:53 PM 34.0 °F 24.6 °F 26.1 °F 73% 29.87 in 5.0 mi WNW 13.8 mph - 0.00 in   Haze
4:14 PM 33.8 °F 24.3 °F 26.6 °F 75% 29.90 in 2.0 mi West 13.8 mph - 0.00 in Snow Light Snow
4:53 PM 33.1 °F 23.0 °F 26.1 °F 75% 29.90 in 2.5 mi WNW 15.0 mph 24.2 mph 0.00 in Snow Light Snow
5:26 PM 32.0 °F 21.6 °F 26.6 °F 80% 29.93 in 1.2 mi WNW 15.0 mph 21.9 mph 0.00 in Snow Light Snow
5:53 PM 32.0 °F 23.0 °F 27.0 °F 82% 29.92 in 1.2 mi WNW 11.5 mph - 0.00 in Snow Light Snow
6:05 PM 32.0 °F 23.0 °F 26.6 °F 80% 29.94 in 1.8 mi WNW 11.5 mph - 0.00 in Snow Light Snow
6:13 PM 32.0 °F 22.1 °F 26.6 °F 80% 29.94 in 2.5 mi WNW 13.8 mph - 0.00 in Snow Light Snow
6:53 PM 32.0 °F 22.1 °F 26.1 °F 79% 29.94 in 2.0 mi WNW 13.8 mph - 0.00 in Snow Light Snow
7:05 PM 32.0 °F 22.5 °F 26.6 °F 80% 29.95 in 2.5 mi WNW 12.7 mph - 0.00 in Snow Light Snow
7:13 PM 32.0 °F 21.6 °F 26.6 °F 80% 29.95 in 2.5 mi WNW 15.0 mph - 0.00 in Snow Light Snow
7:41 PM 30.2 °F 20.8 °F 26.6 °F 86% 29.95 in 2.5 mi West 11.5 mph - 0.00 in Snow Light Snow
7:53 PM 30.9 °F 22.2 °F 27.0 °F 85% 29.94 in 4.0 mi West 10.4 mph - 0.00 in Snow Light Snow
8:30 PM 32.0 °F 23.6 °F 26.6 °F 80% 29.96 in 2.0 mi WNW 10.4 mph 18.4 mph 0.00 in Snow Light Snow
8:53 PM 30.9 °F 20.7 °F 27.0 °F 85% 29.95 in 3.0 mi West 13.8 mph - 0.00 in Snow Light Snow
9:01 PM 32.0 °F 22.5 °F 26.6 °F 80% 29.96 in 4.0 mi West 12.7 mph - 0.00 in Snow Light Snow
9:53 PM 32.0 °F 23.0 °F 26.1 °F 79% 29.95 in 8.0 mi WNW 11.5 mph - 0.00 in   Overcast
10:53 PM 30.9 °F 23.5 °F 25.0 °F 79% 29.96 in 10.0 mi WNW 8.1 mph - N/A   Overcast
11:53 PM 30.9 °F 22.2 °F 25.0 °F 79% 29.96 in 10.0 mi WNW 10.4 mph - N/A   Overcast